COSMOS 2457 (733)

Last updated on Oct. 25, 2020, 5:57 a.m. UTC

1 36112U 09070B   20298.19735112  .00000052  00000-0  00000+0 0  9995
2 36112  64.2248 141.5729 0006268 149.4836 191.1782  2.13101557 84520
UTC
Height (km)
Latitude
Longitude
Inclination
Orbital Period
UTC large
Height (km)
Speed (km/s)
/
Latitude / Longitude
Inclination (degrees)
Orbital Period (minutes)
Azimuth
Elevation
Range (km)
Doppler Factor
iOS Compass Heading
iOS Angle

Next 30 passes for location: Hong Kong

Rise time Rise Azimuth (degrees) Set time Set Azimuth (degrees) Duration Max altitude (degrees)

No matching passes for this satellites